Sedgwick Reserve, California Weather observations

Data are for 10 minute period ending at time listed.
 Day   Time   Solar   Ave.   Ave.  Ave.  Vector  Max.   Baro.   Total    
  of    of     Rad.   Air    Rel.  Wind   Wind   Wind  Press.  Precip.   
Year   Day            Temp.  Hum.  Speed  Dir.   Gust                    
2026   (PST)  Kw/m2    F      %     mph   deg.    mph    mb.     in.     
-------------------------------------------------------------------------
 127   12:20   0.94   83.5    41    5.0   306     9.2   974.8    0.00 
 127   12:30   0.93   84.1    41    7.4   305    13.6   974.7    0.00 
 127   12:40   0.93   83.0    41    9.7   281    16.4   974.7    0.00 
 127   12:50   0.92   82.4    42    9.2   279    17.8   974.6    0.00 
 127   13:00   0.91   81.4    43   11.3   269    19.6   974.5    0.00 
 127   13:10   0.90   82.7    43    8.7   287    16.8   974.5    0.00 
 127   13:20   0.90   84.2    42    9.5   314    16.5   974.5    0.00 
 127   13:30   0.88   82.1    43   10.2   299    16.3   974.4    0.00 
 127   13:40   0.87   82.5    43    9.5   291    16.8   974.3    0.00 
 127   13:50   0.85   82.3    44    9.2   297    16.8   974.2    0.00 
 127   14:00   0.83   82.1    44   10.0   289    20.5   974.1    0.00 
 127   14:10   0.81   79.8    46   12.9   289    22.2   974.1    0.00 
 127   14:20   0.80   79.0    48   14.3   294    24.9   974.1    0.00 
 127   14:30   0.78   79.0    48   11.4   287    18.3   974.0    0.00 
 127   14:40   0.75   78.3    48   13.7   291    22.7   973.9    0.00 
 127   14:50   0.73   77.8    49   12.3   286    19.6   973.9    0.00 
 127   15:00   0.70   78.0    48   13.9   293    22.1   973.8    0.00 
 127   15:10   0.68   78.5    48   13.0   298    22.1   973.7    0.00 
 127   15:20   0.65   78.0    48   13.3   281    20.5   973.7    0.00 
 127   15:30   0.62   77.4    49   14.5   286    20.4   973.7    0.00 
 127   15:40   0.59   77.1    50   12.9   291    20.9   973.7    0.00 
 127   15:50   0.56   77.2    50   12.5   287    19.2   973.7    0.00 
 127   16:00   0.53   78.0    50    9.8   304    16.7   973.8    0.00 
 127   16:10   0.49   76.4    52   12.6   294    20.4   973.9    0.00 
 127   16:20   0.46   75.9    53    9.4   302    18.1   973.9    0.00 
 127   16:30   0.43   76.5    52    8.6   305    15.4   974.0    0.00 
 127   16:40   0.39   75.9    52    8.8   298    16.7   974.1    0.00 
 127   16:50   0.36   74.9    53   10.0   296    16.1   974.1    0.00 
 127   17:00   0.33   74.3    54    9.6   291    17.3   974.1    0.00 
 127   17:10   0.29   73.4    55   10.6   286    17.0   974.2    0.00 
 127   17:20   0.26   72.3    57   10.8   288    16.5   974.2    0.00 
 127   17:30   0.22   72.5    56    7.6   290    13.4   974.3    0.00 
 127   17:40   0.19   71.2    58   10.1   293    16.7   974.3    0.00 
 127   17:50   0.16   71.0    59    5.8   274    10.7   974.3    0.00 
 127   18:00   0.13   68.2    64    3.0   122     7.2   974.4    0.00 
 127   18:10   0.10   66.3    67    4.7   171     9.1   974.4    0.00 
 127   18:20   0.07   66.8    66    4.4   235    10.3   974.5    0.00 
 127   18:30   0.04   65.1    69    6.6   264    11.6   974.6    0.00 
 127   18:40   0.02   64.3    71    6.3   264     9.4   974.7    0.00 
 127   18:50   0.01   63.4    72    3.2   272     6.6   974.8    0.00 
 127   19:00   0.00   61.2    76    3.5   138     6.4   975.0    0.00 
 127   19:10   0.00   59.4    80    2.5   129     5.7   975.1    0.00 
 127   19:20   0.00   58.8    82    1.5   134     4.7   975.2    0.00 
 127   19:30   0.00   58.0    84    3.3   129     6.7   975.2    0.00 
 127   19:40   0.00   56.9    86    3.2   126     6.1   975.4    0.00 
 127   19:50   0.00   56.1    87    2.7   111     5.4   975.5    0.00 
 127   20:00   0.00   55.6    89    3.0   133     4.5   975.5    0.00 
 127   20:10   0.00   55.2    90    2.8   120     4.0   975.6    0.00 
 127   20:20   0.00   54.9    90    2.3    99     3.2   975.7    0.00 
 127   20:30   0.00   54.6    91    2.1   140     3.1   975.8    0.00 
 127   20:40   0.00   54.4    91    1.2   154     2.5   975.9    0.00 
 127   20:50   0.00   54.2    92    0.4    75     1.5   976.0    0.00 
 127   21:00   0.00   53.7    92    1.9    21     3.1   976.0    0.00 
 127   21:10   0.00   53.2    93    0.9    13     2.3   975.9    0.00 
 127   21:20   0.00   52.9    93    0.1     6     1.0   975.9    0.00 
 127   21:30   0.00   52.3    93    0.3   246     1.2   975.9    0.00 
 127   21:40   0.00   52.0    93    0.5    39     1.2   975.8    0.00 
 127   21:50   0.00   51.6    94    0.5    23     1.5   975.8    0.00 
 127   22:00   0.00   51.2    94    1.4    16     3.7   975.8    0.00 
 127   22:10   0.00   50.4    95    3.1     6     4.6   975.9    0.00 
 127   22:20   0.00   50.3    95    1.8     4     3.4   975.9    0.00 
 127   22:30   0.00   50.3    95    1.0   284     2.0   975.8    0.00 
 127   22:40   0.00   50.5    95    1.0   314     2.8   975.9    0.00 
 127   22:50   0.00   49.8    95    1.9     4     3.0   975.9    0.00 
 127   23:00   0.00   49.4    96    1.2   243     1.5   975.9    0.00 
 127   23:10   0.00   49.6    96    0.9   293     1.8   975.9    0.00 
 127   23:20   0.00   49.4    96    1.6    23     2.9   975.9    0.00 
 127   23:30   0.00   48.8    96    1.7     8     3.5   975.9    0.00 
 127   23:40   0.00   48.8    97    1.1   273     2.0   975.8    0.00 
 127   23:50   0.00   48.7    96    0.3    22     1.4   975.9    0.00 
 128    0:00   0.00   48.6    97    0.3   274     1.8   975.9    0.00 
 128    0:10   0.00   48.0    96    0.6    19     3.7   975.9    0.00 
 128    0:20   0.00   47.9    97    1.4    13     3.3   975.8    0.00 
 128    0:30   0.00   47.6    97    1.4    12     3.6   975.7    0.00 
 128    0:40   0.00   47.4    98    1.3   248     2.1   975.6    0.00 
 128    0:50   0.00   47.4    97    1.0   266     2.4   975.6    0.00 
 128    1:00   0.00   47.7    98    1.4   260     2.9   975.6    0.00 
 128    1:10   0.00   47.5    98    0.6   339     2.3   975.6    0.00 
 128    1:20   0.00   48.0    98    0.1    26     1.0   975.6    0.00 
 128    1:30   0.00   48.3    98    0.6    56     1.5   975.6    0.00 
 128    1:40   0.00   48.9    98    0.2     4     1.2   975.6    0.00 
 128    1:50   0.00   48.9    99    0.6   252     2.3   975.6    0.00 
 128    2:00   0.00   49.4    99    0.6   274     1.5   975.7    0.00 
 128    2:10   0.00   49.4    99    0.4   352     1.7   975.8    0.00 
 128    2:20   0.00   49.2    99    0.9    24     2.0   975.7    0.00 
 128    2:30   0.00   49.7   100    0.0     0     0.0   975.7    0.00 
 128    2:40   0.00   50.1   100    0.1   176     1.0   975.8    0.00 
 128    2:50   0.00   50.2   100    0.5    42     1.5   975.8    0.00 
 128    3:00   0.00   50.3   100    0.8    49     1.7   975.8    0.00 
 128    3:10   0.00   50.5   100    0.5    61     1.5   975.7    0.00 
 128    3:20   0.00   50.8   100    1.8    82     3.0   975.7    0.00 
 128    3:30   0.00   50.4   100    1.5   127     3.1   975.7    0.00 
 128    3:40   0.00   50.4   100    0.5    64     2.3   975.8    0.00 
 128    3:50   0.00   50.5   100    1.2    54     2.8   975.9    0.00 
 128    4:00   0.00   50.5   100    1.6    67     3.8   975.8    0.00 
 128    4:10   0.00   50.5   100    0.4    58     2.0   975.8    0.00 
 128    4:20   0.00   50.5   100    1.5    53     2.8   975.9    0.00 
 128    4:30   0.00   50.1   100    1.6    47     2.9   975.9    0.00 
 128    4:40   0.00   50.2   100    0.8    46     2.5   976.0    0.00 
 128    4:50   0.00   50.1   100    1.1    51     2.3   976.0    0.00 
 128    5:00   0.00   50.1   100    1.3    37     2.8   975.9    0.00 
 128    5:10   0.00   50.0   100    0.9    38     3.1   976.0    0.00 
 128    5:20   0.01   50.1   100    1.2   100     2.7   976.0    0.00 
 128    5:30   0.01   50.0   100    0.6   236     2.3   976.1    0.00 
 128    5:40   0.01   50.1   100    0.7    26     3.2   976.3    0.00 
 128    5:50   0.02   49.9   100    1.0    31     2.8   976.4    0.00 
 128    6:00   0.03   50.0   100    1.2    39     3.7   976.4    0.00 
 128    6:10   0.04   50.3   100    0.8    36     3.4   976.5    0.00 
 128    6:20   0.05   50.3   100    1.7     9     3.5   976.6    0.00 
 128    6:30   0.07   50.4   100    2.2    12     3.9   976.6    0.00 
 128    6:40   0.08   50.6   100    2.0    29     4.6   976.5    0.00 
 128    6:50   0.09   50.8   100    1.0   358     2.7   976.6    0.00 
 128    7:00   0.10   51.1   100    1.6    76     3.4   976.6    0.00 
 128    7:10   0.13   51.1   100    1.5   113     3.4   976.5    0.00 
 128    7:20   0.14   51.7   100    0.8    61     2.7   976.5    0.00 
 128    7:30   0.16   51.5   100    0.7   306     2.5   976.6    0.00 
 128    7:40   0.20   52.0   100    0.7   208     2.0   976.6    0.00 
 128    7:50   0.21   52.6   100    0.7   232     2.5   976.5    0.00 
 128    8:00   0.23   53.0   100    1.5   179     3.4   976.5    0.00 
 128    8:10   0.27   53.5    99    1.9   146     3.5   976.5    0.00 
 128    8:20   0.33   54.5    98    1.6   191     4.8   976.5    0.00 
 128    8:30   0.37   55.2    95    2.6   226     5.8   976.4    0.00 
 128    8:40   0.62   56.6    91    2.3   205     4.7   976.4    0.00 
 128    8:50   0.69   58.7    84    2.2   217     4.7   976.3    0.00 
 128    9:00   0.70   59.3    81    3.3   233     6.7   976.2    0.00 
 128    9:10   0.73   60.8    78    3.3   228     6.5   976.1    0.00 
 128    9:20   0.75   62.4    74    2.5   260     6.7   976.1    0.00 
 128    9:30   0.78   64.4    71    4.5   266     8.3   976.1    0.00 
 128    9:40   0.80   64.3    72    5.1   248     9.4   976.1    0.00 
 128    9:50   0.82   64.9    71    5.1   237    11.4   976.1    0.00 
 128   10:00   0.84   65.4    71    6.2   232    10.5   976.0    0.00 
 128   10:10   0.85   65.9    71    7.8   266    12.5   976.0    0.00 
 128   10:20   0.86   65.4    72    8.9   264    13.8   975.9    0.00 
 128   10:30   0.88   65.4    72    9.2   261    13.7   975.8    0.00 
 128   10:40   0.89   66.1    70    9.4   275    12.6   975.8    0.00 
 128   10:50   0.90   67.1    68    8.7   272    12.6   975.8    0.00 
 128   11:00   0.91   67.4    68    7.6   265    11.0   975.7    0.00 
 128   11:10   0.92   68.8    65    7.9   268    12.7   975.6    0.00 
 128   11:20   0.93   69.7    63    7.7   255    13.1   975.6    0.00 
 128   11:30   0.89   70.2    63    8.9   261    13.5   975.6    0.00 
 128   11:40   0.93   71.4    61    7.3   241    14.2   975.4    0.00 
 128   11:50   0.94   73.0    58    8.5   239    13.2   975.3    0.00 
 128   12:00   0.94   73.1    58    7.5   262    12.6   975.2    0.00 
 128   12:10   0.94   73.8    57    7.3   252    13.3   975.0    0.00 

Return to Sedgwick Reserve graphs page.


Western Regional Climate Center,wrcc@dri.edu